TimePDT,TemperatureF,Dew PointF,Humidity,Sea Level PressureIn,VisibilityMPH,Wind Direction,Wind SpeedMPH,Gust SpeedMPH,PrecipitationIn,Events,Conditions,WindDirDegrees,DateUTC
12:53 AM,75.9,25.0,15,29.80,10.0,SSE,17.3,-,N/A,,Clear,160,2013-05-26 07:53:00
1:53 AM,75.0,28.0,18,29.79,10.0,SSW,15.0,-,N/A,,Clear,210,2013-05-26 08:53:00
2:53 AM,73.0,28.9,20,29.80,10.0,South,13.8,-,N/A,,Clear,180,2013-05-26 09:53:00
3:53 AM,71.1,28.0,20,29.80,10.0,South,8.1,-,N/A,,Clear,180,2013-05-26 10:53:00
4:53 AM,71.1,28.0,20,29.80,10.0,South,10.4,-,N/A,,Clear,170,2013-05-26 11:53:00
5:53 AM,66.9,28.0,23,29.81,10.0,SE,5.8,-,N/A,,Clear,130,2013-05-26 12:53:00
6:53 AM,71.1,28.0,20,29.83,10.0,South,4.6,-,N/A,,Clear,180,2013-05-26 13:53:00
7:53 AM,73.0,28.0,19,29.84,10.0,South,10.4,-,N/A,,Clear,170,2013-05-26 14:53:00
8:53 AM,75.0,27.0,17,29.86,10.0,SSE,11.5,-,N/A,,Clear,160,2013-05-26 15:53:00
9:53 AM,79.0,27.0,15,29.86,10.0,SSE,10.4,-,N/A,,Clear,160,2013-05-26 16:53:00
10:53 AM,82.0,24.1,12,29.85,10.0,SSE,16.1,23.0,N/A,,Clear,160,2013-05-26 17:53:00
11:01 AM,82.4,23.0,11,29.87,10.0,South,15.0,23.0,N/A,,Clear,170,2013-05-26 18:01:00
11:53 AM,86.0,23.0,10,29.83,10.0,South,19.6,25.3,N/A,,Clear,180,2013-05-26 18:53:00
12:53 PM,87.1,21.0,9,29.81,10.0,SSW,21.9,27.6,N/A,,Clear,200,2013-05-26 19:53:00
1:53 PM,88.0,23.0,9,29.80,10.0,SSW,16.1,25.3,N/A,,Clear,200,2013-05-26 20:53:00
2:53 PM,89.1,21.9,9,29.79,10.0,South,23.0,32.2,N/A,,Clear,190,2013-05-26 21:53:00
3:53 PM,89.1,23.0,9,29.78,10.0,SSW,17.3,31.1,N/A,,Clear,210,2013-05-26 22:53:00
4:53 PM,88.0,23.0,9,29.77,10.0,SW,16.1,21.9,N/A,,Clear,230,2013-05-26 23:53:00
5:53 PM,88.0,23.0,9,29.76,10.0,SW,18.4,26.5,N/A,,Clear,230,2013-05-27 00:53:00
6:53 PM,86.0,23.0,10,29.75,10.0,SSW,16.1,26.5,N/A,,Clear,210,2013-05-27 01:53:00
7:53 PM,84.0,24.1,11,29.77,10.0,SW,12.7,-,N/A,,Clear,220,2013-05-27 02:53:00
8:53 PM,82.9,25.0,12,29.78,10.0,SW,15.0,-,N/A,,Clear,220,2013-05-27 03:53:00
9:53 PM,81.0,26.1,13,29.79,10.0,SSW,12.7,-,N/A,,Clear,200,2013-05-27 04:53:00
10:53 PM,80.1,27.0,14,29.80,10.0,SW,13.8,-,N/A,,Clear,230,2013-05-27 05:53:00
11:53 PM,77.0,25.0,15,29.80,10.0,SSW,12.7,-,N/A,,Clear,200,2013-05-27 06:53:00